This is the latest recevied weather packets stored in our database for station/object KB7KFC-3. If no packets are shown the sender has not sent any weather packets the latest 10 day(s).
| Time | Temp. | Humidity | Pressure | Rain* | Wind** | Luminosity | Snow |
|---|---|---|---|---|---|---|---|
| 1777580886 | 31.67° C | 11% | 1007.3 hPa | 0 mm | - | - | - |
| 1777580705 | 31.67° C | 11% | 1007.4 hPa | 0 mm | - | - | - |
| 1777580526 | 31.11° C | 9% | 1007.4 hPa | 0 mm | - | - | - |
| 1777580345 | 31.67° C | 10% | 1007.4 hPa | 0 mm | - | - | - |
| 1777580165 | 32.22° C | 10% | 1007.5 hPa | 0 mm | - | - | - |
| 1777579985 | 31.67° C | 12% | 1007.5 hPa | 0 mm | - | - | - |
| 1777579806 | 31.67° C | 10% | 1007.5 hPa | 0 mm | - | - | - |
| 1777579625 | 31.67° C | 11% | 1007.5 hPa | 0 mm | - | - | - |
| 1777579446 | 31.67° C | 12% | 1007.7 hPa | 0 mm | - | - | - |
| 1777579266 | 31.11° C | 11% | 1007.7 hPa | 0 mm | - | - | - |
| 1777579084 | 31.11° C | 11% | 1007.8 hPa | 0 mm | - | - | - |
| 1777578905 | 31.11° C | 11% | 1007.9 hPa | 0 mm | - | - | - |
| 1777578724 | 31.67° C | 13% | 1007.9 hPa | 0 mm | - | - | - |
| 1777578544 | 30.56° C | 12% | 1008 hPa | 0 mm | - | - | - |
| 1777578364 | 31.11° C | 11% | 1008 hPa | 0 mm | - | - | - |
| 1777578186 | 31.11° C | 11% | 1008.1 hPa | 0 mm | - | - | - |
| 1777578005 | 31.67° C | 13% | 1008.1 hPa | 0 mm | - | - | - |
| 1777577824 | 31.67° C | 11% | 1008.1 hPa | 0 mm | - | - | - |
| 1777577644 | 31.67° C | 12% | 1008.1 hPa | 0 mm | - | - | - |
| 1777577465 | 31.67° C | 11% | 1008.2 hPa | 0 mm | - | - | - |
| 1777577285 | 31.11° C | 14% | 1008.4 hPa | 0 mm | - | - | - |
| 1777577104 | 31.11° C | 10% | 1008.5 hPa | 0 mm | - | - | - |
| 1777576924 | 31.11° C | 10% | 1008.5 hPa | 0 mm | - | - | - |
| 1777576746 | 31.11° C | 10% | 1008.6 hPa | 0 mm | - | - | - |
| 1777576565 | 31.11° C | 12% | 1008.6 hPa | 0 mm | - | - | - |
* Rain latest hour (hover to see other rain measurements)
** Current wind speed in m/s (hover to see current wind gust speed)